Location: *
(52.2500°S, 179.9000°W)
Time: 22:27:45
(UTC+00:00)

Daily predictions for brighter satellites

Satellite Brightness Start Highest point End
(mag) Time Altitude Azimuth Time Altitude Azimuth Time Altitude Azimuth
USA 59 Rocket 4.1 12:36:53 10° SW 12:37:41 12° SW 12:37:41 12° SW
ATLAS 5 CENTAUR R/B 3.3 15:13:49 50° ENE 15:13:49 50° ENE 15:20:07 10° SE
ATLAS 2AS CENTAUR R/B 3.9 15:21:18 33° SSW 15:22:06 34° S 15:28:45 10° ESE
Cosmos 1697 Rocket 4.1 15:29:32 30° NE 15:30:36 32° ENE 15:35:37 10° SE
ACS3 Solar Sail 3.7 15:32:06 10° ENE 15:37:17 28° ESE 15:42:32 10° S
NOSS 3-3 (A) 4.4 15:40:15 75° SW 15:40:24 75° SW 15:47:48 10° SE
Cosmos 2263 Rocket 3.2 15:39:34 37° SSE 15:40:58 43° SE 15:46:17 10° ENE
SL-16 R/B 3.8 15:37:34 10° SSE 15:43:28 39° E 15:49:17 10° NNE
Cosmos 2369 Rocket 4.1 15:46:58 19° S 15:46:58 19° S 15:49:32 10° SSE
Cosmos 2173 Rocket 4.0 15:48:24 81° ESE 15:48:24 81° ESE 15:54:32 10° SSE
Cosmos 1125 Rocket 4.5 15:50:51 40° SSE 15:50:51 40° SSE 15:54:14 10° SSE
NOSS 3-3 (C) 4.4 15:53:24 67° WSW 15:54:09 71° SW 16:01:29 10° SE
Cosmos 2227 Rocket 2.7 15:56:46 49° NNE 15:56:46 49° NNE 16:00:51 10° NNE
ADEOS Rocket 4.1 16:00:22 34° SSW 16:00:22 34° SSW 16:04:04 10° SSW
Cosmos 1459 Rocket 3.9 15:59:41 82° NNW 16:00:01 89° W 16:06:30 10° S
Cosmos 1607 4.1 16:08:16 58° SSW 16:08:16 58° SSW 16:14:28 10° SE
RESURS DK-1 4.4 16:07:17 21° SSE 16:08:13 23° SE 16:11:30 10° E
Cosmos 1802 Rocket 4.0 16:09:40 39° N 16:12:21 88° E 16:18:55 10° S
GEOS 3 Rocket 4.4 16:07:55 10° SE 16:12:20 41° SSW 16:12:20 41° SSW
Cosmos 1269 Rocket 4.1 16:15:08 41° SSW 16:17:02 74° ESE 16:22:21 10° NNE
Cosmos 192 4.3 16:19:29 83° ENE 16:19:30 83° ENE 16:24:31 10° SSE
Cosmos 2298 Rocket 3.9 16:26:19 72° NW 16:26:51 83° WSW 16:32:16 10° SSE
Helios 1A Rocket 3.5 16:23:51 10° SSE 16:27:02 49° ESE 16:27:02 49° ESE
Cosmos 1818 3.6 16:27:55 46° SSW 16:29:31 75° SE 16:34:57 10° NE
Cosmos 2100 Rocket 4.0 16:30:37 53° WSW 16:30:37 53° WSW 16:36:45 10° S
Cosmos 1980 Rocket 3.3 16:27:26 10° N 16:32:45 44° ENE 16:38:10 10° SE
Cosmos 2061 Rocket 4.1 16:27:36 10° N 16:33:59 77° E 16:40:21 10° SSE
Cosmos 1271 Rocket 3.5 16:34:02 35° SSE 16:35:06 48° ESE 16:38:34 10° NNE
SL-4 R/B 3.5 16:34:29 28° NNE 16:35:13 30° NNE 16:38:53 10° E
SL-12 R/B(2) 4.4 16:29:17 19° SW 16:36:15 70° SE 16:43:56 10° ENE
Cosmos 1470 Rocket 3.4 16:39:52 75° SW 16:39:52 75° SW 16:44:03 10° S
Meteor 2-10 Rocket 3.7 16:40:22 22° NNW 16:44:16 77° WSW 16:50:07 10° S
ARIANE 5 R/B 2.6 16:39:28 10° NNE 16:44:32 77° ESE 16:49:37 10° SSW
DMSP B5D2-2 4.0 16:45:14 10° S 16:50:31 66° WSW 16:52:53 32° NW
Meteor 1-24 Rocket 3.5 16:45:17 10° SSW 16:50:46 86° W 16:56:07 10° N
Cosmos 1933 Rocket 3.8 16:47:18 10° N 16:51:46 72° E 16:56:17 10° SSE
Cosmos 2016 Rocket 4.0 16:47:36 20° NNW 16:52:00 61° WSW 16:58:24 10° S
IRAS Rocket 4.2 16:48:50 10° N 16:54:22 59° WNW 16:59:56 10° SSW
ATLAS 5 CENTAUR R/B 2.8 16:53:49 36° WNW 16:56:48 62° SW 17:03:24 10° SE
Cosmos 2219 3.1 16:55:06 22° SW 16:58:47 71° WNW 17:04:23 10° NNE
Cosmos 2150 Rocket 4.3 16:58:40 41° W 16:59:59 50° WSW 17:05:20 10° SSE
Meteor 1-15 Rocket 4.3 16:55:07 10° N 17:00:52 82° E 17:06:36 10° SSE
Cosmos 1869 Rocket 4.1 16:58:28 10° N 17:02:54 62° E 17:07:23 10° SSE
Cosmos 407 Rocket 3.8 16:57:38 10° SSW 17:03:00 72° ESE 17:08:21 10° NNE
Cosmos 2242 Rocket 4.3 17:00:29 10° S 17:04:53 54° ESE 17:09:15 10° NNE
CZ-2D R/B 4.2 17:01:27 10° NE 17:05:11 49° ESE 17:09:00 10° S
Cosmos 1725 Rocket 4.2 17:02:46 21° NW 17:06:51 48° WSW 17:13:02 10° S
Cosmos 1633 Rocket 4.3 17:11:38 25° SW 17:11:38 25° SW 17:14:10 10° S
Cosmos 1844 Rocket 3.7 17:05:09 10° SSW 17:10:35 45° SE 17:15:57 10° ENE
Cosmos 1140 Rocket 3.4 17:08:18 15° SSW 17:12:41 63° WNW 17:17:50 10° N
Cosmos 2084 4.0 17:12:36 38° WNW 17:13:02 39° NW 17:17:12 10° NNE
SJ 16-02 3.9 17:10:28 10° S 17:13:25 17° SE 17:16:20 10° E
Cosmos 1697 Rocket 2.8 17:11:18 27° WNW 17:14:19 56° SW 17:19:58 10° SSE
ATLAS 2AS CENTAUR R/B 3.6 17:08:43 15° SW 17:14:43 47° SSE 17:21:54 10° E
Intercosmos 24 3.8 17:12:42 10° S 17:16:23 76° ESE 17:20:13 10° NNE
Meteor 2-5 Rocket 3.7 17:11:11 10° SSW 17:16:52 59° W 17:22:23 10° N
Cosmos 1703 Rocket 4.0 17:17:07 32° WSW 17:18:09 37° W 17:22:13 10° NNW
Cosmos 2251 Rocket 3.9 17:13:07 10° SSW 17:18:29 66° ESE 17:23:44 10° NE
SMAP 3.0 17:14:48 10° NNE 17:19:32 85° WNW 17:24:18 10° SSW
ACS3 Solar Sail 1.8 17:13:49 10° N 17:20:07 75° WNW 17:26:34 10° SSW
Cosmos 1953 2.8 17:17:09 10° N 17:20:50 59° E 17:24:37 10° SSE
IGS 5A 3.4 17:16:59 10° NNE 17:21:02 83° ESE 17:25:10 10° SSW
Cosmos 2263 Rocket 2.5 17:21:18 19° SW 17:24:54 43° WNW 17:30:09 10° N
BREEZE-M DEB (TANK) 2.8 17:23:14 22° WNW 17:26:03 50° N 17:28:36 10° E
USA 276 4.2 17:27:01 12° NNW 17:27:01 12° NNW 17:27:42 10° N
SL-16 R/B 2.7 17:21:07 10° S 17:27:12 50° WSW 17:33:12 10° NW
Cosmos 1328 3.5 17:24:02 10° SSW 17:27:48 74° W 17:31:32 10° N
CZ-4C R/B 3.3 17:20:37 10° NNW 17:29:11 72° NE 17:36:10 10° SE
SJ-6F 4.3 17:25:53 10° N 17:30:00 70° WNW 17:34:08 10° SSW
CORIOLIS 4.1 17:25:23 10° N 17:30:49 70° WNW 17:36:18 10° SSW
Cosmos 2369 Rocket 4.3 17:29:28 10° SSW 17:31:27 12° S 17:33:25 10° SSE
Cosmos 1758 4.1 17:32:04 28° WSW 17:32:04 28° WSW 17:35:26 10° S
USA 290 2.5 17:33:10 12° SSW 17:36:20 76° ESE 17:39:43 10° NNE
Cosmos 2227 Rocket 3.5 17:38:40 19° WNW 17:38:40 19° WNW 17:42:19 10° NW
Cosmos 2082 4.0 17:38:20 10° SW 17:43:43 45° WNW 17:49:03 10° N
Meteor 1-22 Rocket 4.4 17:39:24 10° NW 17:44:29 43° WSW 17:49:40 10° S
SJ-12 4.4 17:41:02 10° NNW 17:44:38 34° W 17:48:19 10° SSW
RESURS DK-1 2.3 17:42:41 14° SW 17:46:04 61° WNW 17:50:02 10° NNE
Cosmos 1461 3.8 17:46:06 21° WNW 17:46:39 22° WNW 17:49:29 10° N
Cosmos 1733 Rocket 3.5 17:42:14 10° N 17:46:41 67° E 17:51:09 10° SSE
SL-19 R/B 3.7 17:43:50 10° N 17:46:42 55° WNW 17:49:51 10° SSW
Resurs 01 Rocket 4.3 17:50:29 10° ENE 17:53:34 19° ESE 17:56:40 10° SSE
Meteor 2-12 Rocket 4.4 17:48:14 10° SSW 17:54:27 75° W 18:00:34 10° N
Landsat 7 3.8 17:50:39 10° NNE 17:55:22 88° E 18:00:10 10° SSW
CZ-2D R/B 4.2 17:56:22 10° NW 17:59:01 21° W 18:01:08 13° SW
Helios 1A Rocket 4.1 17:57:51 10° SSW 18:00:22 18° WSW 18:01:15 16° WSW
SL-16 R/B 3.3 17:55:04 10° N 18:00:31 49° ENE 18:06:02 10° SE
SJ-7 4.3 17:57:15 10° N 18:01:11 67° WNW 18:05:08 10° SSW
Cosmos 2034 Rocket 4.2 17:56:31 10° N 18:02:43 78° E 18:09:03 10° SSE
BREEZE-M DEB (TANK) 4.1 17:46:16 10° WNW 18:03:13 65° N 18:07:00 10° E
Cosmos 2278 Rocket 4.3 17:59:14 10° SSW 18:03:16 19° SSE 18:07:17 10° ESE
USA 305 3.2 18:04:29 10° NW 18:08:24 57° NNE 18:12:16 10° ESE
Cosmos 1271 Rocket 4.1 18:08:04 13° WSW 18:09:28 16° W 18:11:41 10° NW
SL-4 R/B 2.2 18:08:45 10° WNW 18:12:58 71° NNE 18:17:05 10° E
Cosmos 2369 3.8 18:07:57 10° NW 18:13:35 62° SW 18:19:18 10° SSE
Cosmos 1844 3.8 18:08:15 10° SSW 18:14:08 83° WNW 18:19:58 10° NNE
Cosmos 1190 Rocket 4.0 18:10:17 10° SSW 18:15:28 63° WNW 18:20:38 10° N
USA 81 4.1 18:10:58 10° SSW 18:16:14 60° W 18:21:27 10° N
Cosmos 2278 4.3 18:10:43 10° NNW 18:16:20 65° ENE 18:22:03 10° SE
Cosmos 1980 Rocket 2.6 18:11:22 10° WNW 18:16:48 43° SW 18:22:18 10° SSE
PSLV R/B 3.8 18:13:04 10° N 18:17:11 47° W 18:21:21 10° SSW
SL-24 R/B 4.1 18:14:10 10° N 18:17:46 45° W 18:21:40 10° SSW
Cosmos 2333 Rocket 3.8 18:13:37 10° N 18:18:53 41° ENE 18:24:12 10° SE
Nadezhda 4 Rocket 4.2 18:15:45 10° SSW 18:21:54 50° W 18:27:58 10° NNW
Cosmos 1943 Rocket 4.2 18:18:32 10° SSW 18:22:48 21° SSE 18:27:03 10° E
Cosmos 2322 Rocket 3.5 18:18:05 10° N 18:23:25 45° ENE 18:28:47 10° SE
ARIANE 5 R/B 3.8 18:20:40 10° NW 18:24:10 19° W 18:27:41 10° SW
Cosmos 1420 Rocket 4.1 18:22:09 10° NNW 18:27:27 89° ENE 18:32:45 10° SSE
Cosmos 1464 Rocket 4.2 18:22:47 10° NNW 18:29:00 53° WSW 18:35:15 10° S
SPOT 1/Viking Rocket 3.7 18:26:34 10° NNE 18:31:45 84° ESE 18:37:02 10° SSW
Aureole 3 Rocket 3.2 18:30:56 10° NW 18:33:39 27° WSW 18:36:29 10° S
Cosmos 1954 Rocket 4.2 18:29:50 10° SSW 18:35:00 56° WNW 18:40:07 10° N
Cosmos 1378 Rocket 4.0 18:32:18 10° SSW 18:36:24 39° W 18:40:26 10° NNW
